Weather History for Seward, AK

Change the Weather History Date:

Tuesday, November 6, 2012

  Actual Average Record
Temperature  
Mean Temperature 26 °F -  
Max Temperature 28 °F 37 °F 47 °F (1979)
Min Temperature 25 °F 28 °F 10 °F (2004)
Degree Days  
Heating Degree Days 38    
Moisture  
Dew Point 16 °F    
Average Humidity 66    
Maximum Humidity 75    
Minimum Humidity 49    
Precipitation  
Precipitation 0.00 in - - ()
Sea Level Pressure  
Sea Level Pressure 29.88 in    
Wind  
Wind Speed 22 mph (NNE)    
Max Wind Speed 32 mph    
Max Gust Speed 46 mph    
Visibility 10 miles    
Events      
Averages and records for this station are not official NWS values.
T = Trace of Precipitation, MM = Missing Value Source: NWS Daily Summary

Daily Weather History Graph

Daily Weather History Graph

Search for Another Location

Airport:

Trip Planner

Search our weather history database for the weather conditions in past years. The results will help you decide how hot, cold, wet, or windy it might be!

Date:

Astronomy

Nov. 06, 2012 Rise Set
Actual Time 8:35 AM AKST 4:46 PM AKST
Civil Twilight 7:48 AM AKST 5:33 PM AKST
Nautical Twilight 6:57 AM AKST 6:23 PM AKST
Astronomical Twilight 6:09 AM AKST 7:12 PM AKST
Moon 11:59 PM AKST (11/6) 2:15 PM AKST (11/6)
Length of Visible Light 9h 44m
Length of Day
8h 11m
Waning Gibbous, 51% of the Moon is Illuminated
Nov 6
Waning Gibbous
Nov 6
Last Quarter
Nov 13
New
Nov 20
First Quarter
Nov 28
Full

Hourly Weather History & Observations

Time (AKST) Temp. Windchill Dew Point Humidity Pressure Visibility Wind Dir Wind Speed Gust Speed Precip Events Conditions
12:53 AM 26.1 °F 13.1 °F 18.0 °F 71% 29.70 in 10.0 mi NNE 17.3 mph 31.1 mph N/A   Overcast
1:53 AM 25.0 °F 11.3 °F 18.0 °F 75% 29.72 in 10.0 mi NNE 18.4 mph 24.2 mph N/A   Mostly Cloudy
3:53 AM 25.0 °F 10.6 °F 18.0 °F 75% 29.73 in 10.0 mi NNE 20.7 mph 28.8 mph N/A   Overcast
4:53 AM 25.0 °F 10.9 °F 18.0 °F 75% 29.74 in 10.0 mi NNE 19.6 mph 32.2 mph N/A   Mostly Cloudy
5:53 AM 25.0 °F 9.9 °F 18.0 °F 75% 29.76 in 10.0 mi NNE 23.0 mph 38.0 mph N/A   Overcast
6:53 AM 25.0 °F 10.6 °F 18.0 °F 75% 29.78 in 10.0 mi NNE 20.7 mph 32.2 mph N/A   Overcast
7:53 AM 25.0 °F 10.2 °F 18.0 °F 75% 29.80 in 10.0 mi NNE 21.9 mph 32.2 mph N/A   Overcast
8:53 AM 25.0 °F 8.9 °F 18.0 °F 75% 29.81 in 10.0 mi NNE 26.5 mph 40.3 mph N/A   Overcast
9:53 AM 26.1 °F 10.1 °F 18.0 °F 71% 29.83 in 10.0 mi North 27.6 mph 42.6 mph N/A   Overcast
10:53 AM 26.1 °F 10.1 °F 18.0 °F 71% 29.86 in 10.0 mi North 27.6 mph 38.0 mph N/A   Overcast
11:53 AM 28.0 °F 14.6 °F 18.0 °F 66% 29.88 in 10.0 mi NNE 20.7 mph 40.3 mph N/A   Overcast
12:53 PM 27.0 °F 13.2 °F 18.0 °F 69% 29.90 in 10.0 mi North 20.7 mph 35.7 mph N/A   Clear
1:53 PM 28.9 °F 14.5 °F 19.0 °F 67% 29.90 in 10.0 mi North 25.3 mph 35.7 mph N/A   Clear
2:53 PM 28.9 °F 15.4 °F 18.0 °F 64% 29.91 in 10.0 mi North 21.9 mph 34.5 mph N/A   Clear
3:53 PM 28.0 °F 13.6 °F 18.0 °F 66% 29.92 in 10.0 mi North 24.2 mph 38.0 mph N/A   Clear
4:53 PM 27.0 °F 11.0 °F 15.1 °F 61% 29.93 in 10.0 mi North 28.8 mph 42.6 mph N/A   Clear
5:53 PM 27.0 °F 10.8 °F 14.0 °F 58% 29.95 in 10.0 mi North 29.9 mph 41.4 mph N/A   Clear
6:53 PM 27.0 °F 10.3 °F 12.9 °F 56% 29.97 in 10.0 mi North 32.2 mph 46.0 mph N/A   Clear
7:53 PM 26.1 °F 12.0 °F 12.9 °F 58% 29.98 in 10.0 mi NNE 20.7 mph 40.3 mph N/A   Clear
8:53 PM 27.0 °F 11.3 °F 12.0 °F 53% 29.99 in 10.0 mi NNE 27.6 mph 35.7 mph N/A   Clear
9:53 PM 27.0 °F 11.9 °F 12.0 °F 53% 30.02 in 10.0 mi North 25.3 mph 40.3 mph N/A   Clear
10:53 PM 28.9 °F 14.3 °F 12.0 °F 49% 30.03 in 10.0 mi North 26.5 mph 42.6 mph N/A   Clear
11:53 PM 28.9 °F 15.1 °F 12.0 °F 49% 30.04 in 10.0 mi North 23.0 mph 33.4 mph N/A   Clear